This is the latest recevied weather packets stored in our database for station/object K0SNA. If no packets are shown the sender has not sent any weather packets the latest 10 day(s).
| Time | Temp. | Humidity | Pressure | Rain* | Wind** | Luminosity | Snow |
|---|---|---|---|---|---|---|---|
| 1777984899 | 5° C | 50% | 1010.2 hPa | 0 mm | - | 117 W/m² | - |
| 1777984590 | 5° C | 51% | 1010.2 hPa | 0 mm | - | 45 W/m² | - |
| 1777984287 | 4.44° C | 51% | 1010 hPa | 0 mm | - | 100 W/m² | - |
| 1777983983 | 4.44° C | 51% | 1010.1 hPa | 0 mm | - | 90 W/m² | - |
| 1777983680 | 4.44° C | 52% | 1010 hPa | 0 mm | - | 79 W/m² | - |
| 1777983376 | 4.44° C | 53% | 1010 hPa | 0 mm | - | 71 W/m² | - |
| 1777983068 | 4.44° C | 55% | 1009.9 hPa | 0 mm | - | 60 W/m² | - |
| 1777982764 | 3.89° C | 55% | 1010 hPa | 0 mm | - | 44 W/m² | - |
| 1777982460 | 3.89° C | 56% | 1009.8 hPa | 0 mm | - | 42 W/m² | - |
| 1777982154 | 3.89° C | 58% | 1009.7 hPa | 0 mm | - | 30 W/m² | - |
| 1777981852 | 3.89° C | 58% | 1009.8 hPa | 0 mm | - | 24 W/m² | - |
| 1777981549 | 3.89° C | 59% | 1009.5 hPa | 0 mm | - | 20 W/m² | - |
| 1777981245 | 3.89° C | 60% | 1009.3 hPa | 0 mm | - | 18 W/m² | - |
| 1777980942 | 3.33° C | 60% | 1009.2 hPa | 0 mm | - | 16 W/m² | - |
| 1777980638 | 3.89° C | 61% | 1009 hPa | 0 mm | - | 15 W/m² | - |
| 1777980335 | 3.33° C | 63% | 1009.2 hPa | 0 mm | - | 13 W/m² | - |
| 1777980033 | 3.33° C | 63% | 1009 hPa | 0 mm | - | 10 W/m² | - |
| 1777979726 | 3.33° C | 64% | 1009.1 hPa | 0 mm | - | 8 W/m² | - |
| 1777979423 | 3.33° C | 65% | 1008.9 hPa | 0 mm | - | 6 W/m² | - |
| 1777979120 | 3.33° C | 65% | 1008.9 hPa | 0 mm | - | 4 W/m² | - |
| 1777978816 | 3.33° C | 65% | 1008.9 hPa | 0 mm | - | 3 W/m² | - |
| 1777978513 | 3.33° C | 66% | 1008.8 hPa | 0 mm | - | 2 W/m² | - |
| 1777978209 | 3.89° C | 65% | 1008.9 hPa | 0 mm | - | 1 W/m² | - |
| 1777977906 | 3.89° C | 65% | 1008.7 hPa | 0 mm | - | 0 W/m² | - |
| 1777977603 | 3.89° C | 65% | 1008.9 hPa | 0 mm | - | 0 W/m² | - |
* Rain latest hour (hover to see other rain measurements)
** Current wind speed in m/s (hover to see current wind gust speed)